[[{"header":{"parameterUnit":"m.s-1","parameterCategory":1,"la1":30.2991,"la2":30.254,"lo1":-89.0895,"lo2":-89.0444,"dy":0.0017,"dx":0.0017,"nx":28,"ny":28,"refTime":"2024-08-10T21:00:00:Z","depth":0,"parameterNumber":2,"parameterNumberName":"U-component_of_WINDS"},"data":[0,0,0,0,0,0,0,0,0,0,0,0,0,0,0,0,0,0,0,0,0,0,0,0,0,0,0,0,0,0,0,0,0,0,0,0,0,0,0,0,0,0,0,0,0,0,0,0,0,0,0,0,0,0,0,0,0,0,1.385,1.3853,0,1.4072,1.4074,1.4077,1.4081,1.4078,1.4075,1.4073,1.4307,1.4315,1.4324,0,0,0,0,0,0,0,0,0,0,0,0,0,1.3437,1.3444,1.385,1.3853,1.3855,1.4071,1.4074,1.4077,1.4081,1.4078,1.4074,1.4071,1.4304,1.4314,1.4325,0,0,0,0,0,0,0,0,0,0,0,0,0,1.3633,1.3447,1.3849,1.3883,1.3888,1.4071,1.4074,1.4078,1.4082,1.4078,1.4074,1.407,1.43,1.4313,1.4326,1.4491,0,0,1.4367,1.4372,0,0,0,0,0,0,0,0,1.3622,1.3648,1.3876,1.3881,1.3887,1.4044,1.4014,1.4217,1.4083,1.4009,1.4072,1.4068,1.4223,1.4242,1.4293,1.4502,1.4512,1.4368,1.4376,1.4381,1.4385,0,0,0,0,0,0,0,1.3608,1.3639,1.3938,1.3879,1.3886,1.3889,1.3913,1.4053,1.4137,1.4015,1.4016,1.4041,1.4226,1.4281,1.4299,1.4516,1.4367,1.4379,1.4387,1.4392,1.4872,1.4876,0,0,0,0,0,0,1.3587,1.3627,1.3931,1.3944,1.3741,1.39,1.3926,1.3998,1.4135,1.4152,1.4045,1.4041,1.426,1.4283,1.4307,1.4509,1.4381,1.4394,1.4401,1.4867,1.4873,1.4878,0,0,0,0,0,0,1.3578,1.3614,1.3922,1.3786,1.3826,1.3912,1.3993,1.4005,1.406,1.4158,1.4173,1.4085,1.4258,1.4289,1.4445,1.4517,1.44,1.4412,1.4861,1.4869,1.4875,1.4915,0,0,0,0,0,0,1.3566,1.3611,1.3673,1.3787,1.3833,1.4054,1.3997,1.4012,1.4082,1.4078,1.42,1.4216,1.4257,1.4425,1.4458,1.4534,1.4422,1.4855,1.4865,1.4873,1.4908,1.4923,1.4935,0,0,0,0,0,1.3551,1.3677,1.3676,1.3713,1.3912,1.4058,1.4085,1.4127,1.4087,1.4152,1.4215,1.4212,1.4504,1.4441,1.4478,1.4559,1.4851,1.4862,1.4872,1.4901,1.492,1.4935,0,0,0,0,0,0,1.3571,1.3693,1.3693,1.3859,1.3948,1.4059,1.4141,1.4145,1.4249,1.4242,1.4292,1.432,1.4475,1.4533,1.4461,1.4726,1.4673,1.4692,1.4682,1.4701,1.4714,1.4697,1.4433,0,0,0,0,0,1.3594,1.3701,1.3802,1.3939,1.3983,1.4054,1.412,1.4144,1.424,1.4278,1.4353,1.4447,1.456,1.4634,1.4743,1.4916,1.4943,1.499,1.5004,1.5014,1.503,1.5126,1.5147,1.4913,1.4913,1.4913,0,0,1.3645,1.3724,1.3789,1.3945,1.4017,1.4128,1.4086,1.4206,1.4289,1.4297,1.4448,1.4507,1.4616,1.478,1.4857,1.4833,1.5101,1.5028,1.5036,1.5046,1.5139,1.5161,1.5181,1.4921,1.4919,1.4918,0,0,1.3792,1.3863,1.3984,1.4056,1.4165,1.4211,1.424,1.435,1.4388,1.4541,1.4549,1.465,1.4843,1.492,1.4985,1.5161,1.5162,1.5195,1.5268,1.536,1.5379,1.5395,1.5458,1.548,1.5211,1.5211,1.5211,0,1.3841,1.4006,1.4046,1.4165,1.4234,1.4244,1.4368,1.4437,1.4577,1.4625,1.4596,1.4838,1.4913,1.5095,1.5138,1.519,1.5226,1.5182,1.5373,1.539,1.5406,1.5466,1.5489,1.5214,1.5214,1.5213,1.5213,0,1.4061,1.4176,1.4261,1.4393,1.4471,1.4593,1.4652,1.4728,1.4746,1.4795,1.4951,1.504,1.5167,1.5212,1.5232,1.5399,1.538,1.5361,1.5309,1.5431,1.5488,1.5511,1.5218,1.5217,1.5216,1.5216,0,0,1.4228,1.4379,1.4409,1.4469,1.4589,1.468,1.4802,1.4924,1.4987,1.5084,1.5188,1.5351,1.5333,1.5407,1.5435,1.5516,1.5649,1.5488,1.5491,1.5514,1.5838,1.5851,1.5877,1.5651,1.5656,1.5659,1.5829,0,1.4388,1.4602,1.4641,1.4829,1.4936,1.4946,1.5053,1.5139,1.5189,1.5288,1.5345,1.5459,1.5428,1.5472,1.5553,1.5616,1.5715,1.5604,1.575,1.5754,1.5721,1.5907,1.5921,1.6076,1.5851,1.5855,1.5858,0,1.4603,1.4701,1.4899,1.5004,1.505,1.5145,1.5259,1.5354,1.5452,1.5483,1.5564,1.5583,1.5712,1.5654,1.5832,1.5756,1.5818,1.5858,1.5865,1.588,1.5813,1.5926,1.6127,1.615,1.5894,1.5891,1.5888,0,1.4703,1.4886,1.5028,1.5078,1.5205,1.5271,1.5327,1.5421,1.5492,1.5593,1.5639,1.5755,1.5819,1.5909,1.5959,1.5912,1.6134,1.608,1.6164,1.6163,1.621,1.6206,1.6423,1.6251,1.6251,1.625,1.625,0,1.4878,1.4998,1.5074,1.5161,1.5297,1.5342,1.5475,1.5531,1.5614,1.5713,1.5731,1.5824,1.5885,1.5988,1.6029,1.617,1.6199,1.6228,1.6238,1.6227,1.6223,1.6268,1.6258,1.6256,1.6255,1.6254,1.6253,0,1.5013,1.5069,1.5223,1.533,1.5359,1.5454,1.5546,1.5632,1.5681,1.5807,1.5839,1.5918,1.6039,1.6098,1.625,1.6277,1.6437,1.644,1.6403,1.6406,1.6486,1.6477,1.6739,1.6775,1.6579,1.6581,1.6583,0,1.512,1.5212,1.5328,1.5394,1.5451,1.5559,1.563,1.5679,1.5753,1.5871,1.5943,1.6064,1.6164,1.6357,1.6429,1.6545,1.6551,1.6634,1.6568,1.6554,1.6551,1.6545,1.6554,1.6646,1.6648,1.6649,1.6651,0,1.5304,1.5327,1.5428,1.5539,1.5623,1.5713,1.5802,1.5856,1.5919,1.6002,1.6125,1.6202,1.6355,1.6476,1.6596,1.6656,1.6665,1.6671,1.6696,1.6685,1.6659,1.6674,1.6434,1.6664,1.6663,1.6662,1.6661,1.6661,1.5428,1.551,1.5604,1.5716,1.5787,1.587,1.5955,1.6014,1.6117,1.6244,1.6267,1.6397,1.6494,1.6656,1.672,1.6824,1.6806,1.6843,1.6852,1.686,1.6864,1.6643,1.6847,1.6846,1.6846,1.6846,1.6846,0,1.5612,1.5673,1.5775,1.5898,1.5986,1.5984,1.6082,1.6157,1.627,1.6359,1.6455,1.6597,1.6714,1.6794,1.6913,1.6981,1.6987,1.701,1.7006,1.7019,1.6874,1.684,1.7003,1.7003,1.7003,1.7003,1.7003,1.7003,1.5718,1.5857,1.5891,1.6065,1.6126,1.6252,1.6308,1.6384,1.6455,1.6611,1.6707,1.6758,1.6844,1.6969,1.7076,1.7097,1.714,1.7163,1.7183,1.7046,1.703,1.7014,1.6982,1.7172,1.7172,1.732,1.7321,1.7322]},{"header":{"parameterUnit":"m.s-1","parameterCategory":1,"la1":30.2991,"la2":30.254,"lo1":-89.0895,"lo2":-89.0444,"dy":0.0017,"dx":0.0017,"nx":28,"ny":28,"refTime":"2024-08-10T21:00:00:Z","depth":0,"parameterNumber":3,"parameterNumberName":"V-component_of_WINDS"},"data":[0,0,0,0,0,0,0,0,0,0,0,0,0,0,0,0,0,0,0,0,0,0,0,0,0,0,0,0,0,0,0,0,0,0,0,0,0,0,0,0,0,0,0,0,0,0,0,0,0,0,0,0,0,0,0,0,0,0,1.0771,1.0772,0,1.0856,1.0857,1.0858,1.0785,1.0782,1.0779,1.0776,1.0865,1.087,1.0875,0,0,0,0,0,0,0,0,0,0,0,0,0,1.0542,1.0547,1.0771,1.0772,1.0773,1.0856,1.0857,1.0858,1.0785,1.0782,1.0778,1.0775,1.0863,1.0869,1.0875,0,0,0,0,0,0,0,0,0,0,0,0,0,1.0636,1.0548,1.0771,1.0746,1.0745,1.0856,1.0857,1.0859,1.0786,1.0782,1.0777,1.0773,1.0861,1.0868,1.0876,1.1015,0,0,1.09,1.0903,0,0,0,0,0,0,0,0,1.0631,1.0644,1.0749,1.0748,1.0747,1.0805,1.0809,1.0911,1.0787,1.0771,1.0776,1.0771,1.0849,1.0857,1.0883,1.1019,1.1023,1.09,1.0905,1.0909,1.0911,0,0,0,0,0,0,0,1.0624,1.064,1.0805,1.0751,1.0749,1.0731,1.0739,1.0828,1.0834,1.0772,1.0767,1.0778,1.0847,1.0876,1.0885,1.1024,1.09,1.0907,1.0912,1.0915,1.1273,1.1278,0,0,0,0,0,0,1.062,1.0635,1.0802,1.0807,1.0676,1.0738,1.0748,1.0791,1.0833,1.0835,1.0781,1.0774,1.0865,1.0876,1.0887,1.105,1.0908,1.0916,1.092,1.1269,1.1275,1.128,0,0,0,0,0,0,1.0616,1.0636,1.0798,1.072,1.0739,1.0747,1.0797,1.0795,1.0824,1.084,1.0841,1.081,1.0862,1.0877,1.0983,1.1052,1.0919,1.0926,1.1263,1.127,1.1277,1.1377,0,0,0,0,0,0,1.061,1.0635,1.0689,1.0722,1.0744,1.0894,1.0801,1.08,1.0837,1.0828,1.0867,1.0869,1.0859,1.0971,1.099,1.106,1.0932,1.1257,1.1266,1.1275,1.1368,1.1387,1.1404,0,0,0,0,0,1.0602,1.0715,1.0692,1.0712,1.0811,1.0898,1.091,1.0896,1.0843,1.0897,1.0906,1.0868,1.1041,1.0983,1.1004,1.1077,1.1252,1.1264,1.1274,1.136,1.1383,1.1403,0,0,0,0,0,0,1.0692,1.0719,1.0694,1.0821,1.0857,1.0885,1.0952,1.0922,1.0975,1.0964,1.0945,1.0954,1.1065,1.1082,1.1016,1.1211,1.1138,1.1154,1.1196,1.1219,1.1236,1.1229,1.0939,0,0,0,0,0,1.0726,1.0794,1.0814,1.0925,1.0944,1.0945,1.0982,1.0968,1.1005,1.102,1.1038,1.1075,1.1137,1.1179,1.1238,1.137,1.1375,1.143,1.1448,1.1462,1.1476,1.1542,1.1566,1.1316,1.1316,1.1315,0,0,1.0799,1.0822,1.0867,1.0943,1.097,1.1039,1.0959,1.1037,1.1088,1.1032,1.1132,1.1146,1.1186,1.1305,1.1358,1.1322,1.1546,1.1476,1.1488,1.1493,1.1556,1.158,1.1601,1.1323,1.1322,1.1321,0,0,1.0966,1.0992,1.1084,1.1111,1.1151,1.115,1.1172,1.1204,1.121,1.131,1.1268,1.1328,1.1437,1.1466,1.1495,1.1667,1.1633,1.1687,1.178,1.1846,1.1865,1.1883,1.1941,1.1963,1.1701,1.1701,1.1701,0,1.1051,1.1155,1.1136,1.1216,1.1249,1.12,1.1292,1.1319,1.1377,1.1401,1.1359,1.1491,1.1515,1.1637,1.1679,1.1705,1.1728,1.1683,1.1864,1.1881,1.1897,1.1952,1.1975,1.1707,1.1706,1.1706,1.1705,0,1.1256,1.1328,1.1398,1.1452,1.1493,1.1579,1.1572,1.1616,1.1597,1.1599,1.17,1.1726,1.1786,1.1814,1.1798,1.1934,1.1909,1.1867,1.1793,1.1927,1.1979,1.2,1.1716,1.1714,1.1712,1.171,0,0,1.1485,1.1524,1.155,1.1572,1.161,1.1665,1.1747,1.1805,1.1841,1.1882,1.1948,1.2039,1.1998,1.2031,1.2016,1.2074,1.2204,1.2023,1.2024,1.2054,1.2351,1.2382,1.2407,1.2181,1.2185,1.2188,1.2347,0,1.1651,1.1793,1.1776,1.1912,1.1976,1.1927,1.1998,1.2028,1.2032,1.2086,1.209,1.2154,1.2097,1.2115,1.217,1.2177,1.2263,1.2165,1.2241,1.2244,1.2231,1.2435,1.2469,1.2617,1.2367,1.2371,1.2373,0,1.1865,1.191,1.2051,1.2075,1.2101,1.2166,1.2215,1.2268,1.23,1.2298,1.2332,1.2306,1.2386,1.231,1.2419,1.2352,1.2382,1.2389,1.2395,1.24,1.2316,1.2444,1.2665,1.2686,1.2405,1.2403,1.24,0,1.2014,1.2111,1.2206,1.2227,1.2258,1.2303,1.2318,1.2345,1.238,1.2423,1.2444,1.2497,1.2525,1.2565,1.2553,1.25,1.2663,1.2587,1.2662,1.2662,1.2698,1.2696,1.2925,1.272,1.272,1.272,1.2719,0,1.2201,1.2289,1.2273,1.2332,1.2427,1.2406,1.2501,1.2509,1.2533,1.2591,1.2553,1.2609,1.259,1.2643,1.2634,1.2723,1.2737,1.2737,1.2733,1.2739,1.2739,1.2758,1.2747,1.2726,1.2724,1.2723,1.2722,0,1.2385,1.2378,1.2478,1.2498,1.2504,1.2574,1.259,1.2644,1.2643,1.2717,1.2733,1.2732,1.2792,1.2784,1.2853,1.2846,1.2956,1.2941,1.2945,1.2941,1.3015,1.3007,1.3263,1.3294,1.3071,1.3073,1.3075,0,1.2504,1.257,1.2595,1.263,1.2648,1.2706,1.274,1.272,1.2757,1.2795,1.2844,1.2901,1.2945,1.3044,1.3049,1.31,1.3084,1.317,1.3092,1.3095,1.3083,1.3078,1.3083,1.3186,1.3188,1.319,1.3192,0,1.2715,1.2707,1.2757,1.2805,1.2846,1.2883,1.2916,1.2947,1.293,1.2973,1.3033,1.3067,1.3135,1.3191,1.3238,1.3252,1.3219,1.3216,1.3236,1.3243,1.3241,1.324,1.2985,1.3211,1.3209,1.3207,1.3206,1.3206,1.2869,1.2923,1.2948,1.3003,1.3025,1.3056,1.3106,1.311,1.316,1.3213,1.3198,1.3266,1.3291,1.335,1.3369,1.3421,1.3389,1.3419,1.3426,1.3433,1.344,1.3233,1.343,1.3429,1.3429,1.3428,1.3428,0,1.3076,1.3088,1.3139,1.3185,1.3228,1.3191,1.3225,1.3263,1.3323,1.3349,1.3392,1.346,1.3513,1.352,1.357,1.3609,1.3595,1.3623,1.3619,1.3622,1.3467,1.3444,1.3633,1.3633,1.3633,1.3633,1.3633,1.3633,1.3188,1.3277,1.3271,1.3369,1.338,1.3445,1.3467,1.3494,1.3514,1.3591,1.3634,1.3638,1.3656,1.3705,1.3751,1.3752,1.3771,1.3804,1.3799,1.3654,1.3634,1.3614,1.3592,1.3809,1.381,1.3949,1.3951,1.3952]}]]